Weather History for Palm Springs, CA

Change the Weather History Date:

Sunday, July 7, 2013

  Actual Average Record
Temperature  
Mean Temperature 97 °F 92 °F  
Max Temperature 113 °F 107 °F 117 °F (1942)
Min Temperature 81 °F 76 °F 59 °F (1935)
Degree Days  
Heating Degree Days 0 0  
Month to date heating degree days 0 0  
Since 1 June heating degree days 0 0  
Since 1 July heating degree days 0 0  
Cooling Degree Days 32 27  
Month to date cooling degree days 222 182  
Year to date cooling degree days 2010 1588  
Since 1 June cooling degree days 968 829  
Growing Degree Days 48 (Base 50)    
Moisture  
Dew Point 45 °F    
Average Humidity 24    
Maximum Humidity 40    
Minimum Humidity 7    
Precipitation  
Precipitation 0.00 in 0.00 in 0.00 in (2014)
Month to date precipitation 0.00 0.00  
Year to date precipitation 0.97 2.94  
Since 1 July precipitation 0.00 0.00  
Snow  
Snow 0.00 in - - ()
Month to date snowfall 0.0  
Year to date snowfall 0.0  
Since 1 July snowfall 0.0  
Snow Depth -    
Sea Level Pressure  
Sea Level Pressure 29.65 in    
Wind  
Wind Speed 4 mph (NW)    
Max Wind Speed 13 mph    
Max Gust Speed 27 mph    
Visibility 10 miles    
Events      
T = Trace of Precipitation, MM = Missing Value Source: NWS Daily Summary

Daily Weather History Graph

Daily Weather History Graph

Search for Another Location

Airport:

Trip Planner

Search our weather history database for the weather conditions in past years. The results will help you decide how hot, cold, wet, or windy it might be!

Date:

Astronomy

Jul. 07, 2013 Rise Set
Actual Time 5:41 AM PDT 7:59 PM PDT
Civil Twilight 5:13 AM PDT 8:28 PM PDT
Nautical Twilight 4:37 AM PDT 9:03 PM PDT
Astronomical Twilight 3:59 AM PDT 9:42 PM PDT
Moon 5:18 AM PDT (7/7) 7:30 PM PDT (7/7)
Length of Visible Light 15h 15m
Length of Day
14h 18m
Waning Crescent, 0% of the Moon is Illuminated
Jul 7
Waning Crescent
Jul 8
New
Jul 15
First Quarter
Jul 22
Full
Jul 29
Last Quarter

Hourly Weather History & Observations

Time (PDT) Temp. Heat Index Dew Point Humidity Pressure Visibility Wind Dir Wind Speed Gust Speed Precip Events Conditions
12:53 AM 91.0 °F 88.5 °F 53.1 °F 27% 29.64 in 10.0 mi West 3.5 mph - N/A   Clear
1:53 AM 88.0 °F 86.5 °F 55.9 °F 34% 29.63 in 10.0 mi Variable 3.5 mph - N/A   Clear
2:53 AM 86.0 °F 84.7 °F 55.9 °F 36% 29.63 in 10.0 mi Calm Calm - N/A   Clear
3:53 AM 84.0 °F 83.3 °F 57.0 °F 40% 29.63 in 10.0 mi Calm Calm - N/A   Clear
4:53 AM 84.0 °F 83.3 °F 57.0 °F 40% 29.64 in 10.0 mi Calm Calm - N/A   Clear
5:53 AM 82.9 °F 82.1 °F 55.9 °F 39% 29.65 in 10.0 mi Calm Calm - N/A   Clear
6:53 AM 84.9 °F 83.9 °F 57.0 °F 38% 29.67 in 10.0 mi Calm Calm - N/A   Clear
7:53 AM 88.0 °F 86.5 °F 55.9 °F 34% 29.68 in 10.0 mi South 3.5 mph - N/A   Clear
8:53 AM 93.9 °F - 51.1 °F 23% 29.69 in 10.0 mi SSE 8.1 mph - N/A   Clear
9:53 AM 99.0 °F - 48.0 °F 18% 29.69 in 10.0 mi SSE 5.8 mph - N/A   Scattered Clouds
10:53 AM 100.9 °F - 48.9 °F 17% 29.70 in 10.0 mi East 5.8 mph - N/A   Scattered Clouds
11:53 AM 104.0 °F - 48.0 °F 15% 29.68 in 10.0 mi Variable 3.5 mph - N/A   Partly Cloudy
12:53 PM 109.0 °F - 45.0 °F 12% 29.66 in 10.0 mi ENE 6.9 mph - N/A   Scattered Clouds
1:53 PM 109.9 °F - 36.0 °F 8% 29.63 in 10.0 mi Calm Calm - N/A   Partly Cloudy
2:53 PM 113.0 °F - 35.1 °F 7% 29.61 in 10.0 mi NNW 9.2 mph 17.3 mph N/A   Scattered Clouds
3:53 PM 113.0 °F - 36.0 °F 7% 29.60 in 10.0 mi NNW 12.7 mph 26.5 mph N/A   Scattered Clouds
4:53 PM 113.0 °F - 36.0 °F 7% 29.59 in 10.0 mi NNW 15.0 mph 21.9 mph N/A   Partly Cloudy
5:53 PM 111.0 °F - 36.0 °F 8% 29.58 in 10.0 mi NNW 17.3 mph 26.5 mph N/A   Clear
6:53 PM 107.1 °F - 36.0 °F 9% 29.59 in 10.0 mi NW 23.0 mph 33.4 mph N/A   Clear
7:53 PM 104.0 °F - 35.1 °F 9% 29.61 in 10.0 mi NW 13.8 mph - N/A   Clear
8:53 PM 102.9 °F - 27.0 °F 7% 29.63 in 10.0 mi NW 10.4 mph 19.6 mph N/A   Clear
9:53 PM 100.0 °F - 33.1 °F 10% 29.67 in 10.0 mi NW 9.2 mph - N/A   Clear
10:21 PM 98.6 °F - 37.4 °F 12% 29.69 in 10.0 mi NW 5.8 mph - N/A   Clear
10:53 PM 96.1 °F - 43.0 °F 16% 29.68 in 10.0 mi WNW 3.5 mph - N/A   Clear
11:53 PM 91.0 °F - 44.1 °F 20% 29.68 in 10.0 mi Calm Calm - N/A   Clear